Flag for Russia Weather past 2 weeks in Ulyanovsk, Russia

Now
46 °F

Fog.


Feels Like: 46 °F
Forecast: 47 / 65 °F
Wind: No wind

Location: Ulyanovsk

Current Time: Sep 21, 2014 at 11:18:47 PM

Latest Report: Sep 21, 2014 at 10:00 PM


Visibility: 3 mi

Pressure: 30.15 "Hg

Humidity: 93%

Dew point: 45 °F

Location of UlyanovskLocation

Historic Weather in Ulyanovsk — Graph

°F

Ulyanovsk temperature yesterday

Maximum temperature yesterday: 64 °F (at 3:00 PM)
Minimum temperature yesterday: 37 °F (at 3:00 AM)
Average temperature yesterday: 50 °F

Past Weeks' High & Low Weather Summary

 TemperatureHumidityPressure
High73 °F (Sep 13, 3:00 PM)100% (Sep 7, 7:00 AM)30.45 "Hg (Sep 7, 7:00 AM)
Low37 °F (Sep 10, 6:00 AM)40% (Sep 10, 2:00 PM)29.95 "Hg (Sep 16, 1:00 PM)
Average54 °F76%30.20 "Hg
* Reported Sep 6 10:00 PM — Sep 21 10:00 PM, Ulyanovsk, Weather by CustomWeather, © 2014

Note: Actual official high and low records may vary slightly from our data, if they occured in-between our weather recording intervals... More about our weather records

Advertising

Ulyanovsk weather history for previous 24 hours

 ConditionsComfort  
Time TempWeatherWind HumidityBarometerVisibility
10:00 PM
Sep 21
46 °FFog.No wind93%30.15 "Hg3 mi
9:00 PM48 °FFog.No wind94%30.15 "Hg3 mi
8:00 PM50 °FFog.No wind94%30.12 "Hg3 mi
7:00 PM57 °FSunny.No wind67%30.12 "HgN/A
6:00 PM66 °FSunny.No wind46%30.12 "Hg5 mi
5:00 PM68 °FSunny.No wind43%30.15 "Hg5 mi
4:00 PM68 °FPassing clouds.1 mph43%30.15 "Hg5 mi
3:00 PM68 °FPassing clouds.3 mph46%30.15 "Hg5 mi
2:00 PM68 °FPassing clouds.3 mph49%30.15 "Hg5 mi
1:00 PM68 °FPassing clouds.1 mph49%30.18 "Hg5 mi
12:00 PM68 °FSunny.No wind53%30.18 "Hg5 mi
11:00 AM64 °FSunny.3 mph60%30.18 "Hg5 mi
10:00 AM59 °FSunny.No wind72%30.18 "Hg5 mi
9:00 AM55 °FFog.3 mph77%30.18 "Hg3 mi
8:00 AM48 °FFog.3 mph100%30.18 "Hg2 mi
7:00 AM45 °FFog.3 mph100%30.18 "Hg2 mi
6:00 AM48 °FFog.No wind94%30.18 "Hg3 mi
5:00 AM50 °FFog.3 mph100%30.18 "Hg3 mi
4:00 AM46 °FFog.1 mph100%30.18 "Hg2 mi
3:00 AM46 °FFog.No wind100%30.18 "Hg2 mi
2:00 AM46 °FFog.1 mph93%30.18 "Hg2 mi
1:00 AM46 °FFog.3 mph93%30.18 "Hg2 mi
12:00 AM48 °FFog.3 mph100%30.21 "Hg2 mi
11:00 PM
Sep 20
50 °FFog.3 mph94%30.21 "Hg2 mi
Weather by CustomWeather, © 2014

See weather overviewHow to use our weather pages